Weather History for KGSH - October, 2014

Change the Weather History Date:

Friday, October 31, 2014

  Actual Average (KSBN) Record (KSBN)
Temperature  
Mean Temperature 40 °F 47 °F  
Max Temperature 45 °F 56 °F 83 °F (1950)
Min Temperature 33 °F 39 °F 20 °F (1925)
Degree Days  
Heating Degree Days 26 18  
Month to date heating degree days 406  
Since 1 July heating degree days 541  
Cooling Degree Days 0 0  
Month to date cooling degree days 9  
Year to date cooling degree days 773  
Moisture  
Dew Point 34 °F    
Average Humidity 83    
Maximum Humidity 93    
Minimum Humidity 67    
Precipitation  
Precipitation 0.19 in 0.10 in 1.66 in (1994)
Month to date precipitation 3.32  
Year to date precipitation 32.12  
Snow  
Snow 0.00 in 0.00 in 1.60 in (1954)
Month to date snowfall 0.4  
Since 1 July snowfall 0.4  
Since 1 September snowfall 0.4  
Snow Depth -    
Sea Level Pressure  
Sea Level Pressure 30.02 in    
Wind  
Wind Speed 12 mph (NW)    
Max Wind Speed 24 mph    
Max Gust Speed 37 mph    
Visibility 9 miles    
Events Rain , Snow    
T = Trace of Precipitation, MM = Missing Value Source: NWS Daily Summary

Daily Weather History Graph

Daily Weather History Graph

Search for Another Location

Airport or City:

Trip Planner

Search our weather history database for the weather conditions in past years. The results will help you decide how hot, cold, wet, or windy it might be!

Date:

Astronomy

Oct. 31, 2014 Rise Set
Actual Time 8:13 AM EDT 6:39 PM EDT
Civil Twilight 7:44 AM EDT 7:07 PM EDT
Nautical Twilight 7:12 AM EDT 7:40 PM EDT
Astronomical Twilight 6:40 AM EDT 8:12 PM EDT
Moon 2:57 PM EDT (10/31) 12:56 AM EDT (10/31)
Length of Visible Light 11h 22m
Length of Day
10h 25m
First Quarter, 56% of the Moon is Illuminated
Oct 31
First Quarter
Nov 6
Full
Nov 14
Last Quarter
Nov 22
New
Nov 29
First Quarter

Hourly Weather History & Observations

Time (EDT) Temp. Windchill Dew Point Humidity Pressure Visibility Wind Dir Wind Speed Gust Speed Precip Events Conditions
12:53 AM 44.1 °F 41.5 °F 37.9 °F 79% 30.03 in 9.0 mi SW 4.6 mph - N/A   Overcast
1:53 AM 45.0 °F 41.2 °F 37.0 °F 74% 30.02 in 10.0 mi WSW 6.9 mph - N/A   Overcast
2:53 AM 45.0 °F 40.1 °F 37.0 °F 74% 30.00 in 10.0 mi WSW 9.2 mph - N/A   Overcast
3:53 AM 44.1 °F 39.5 °F 37.0 °F 76% 29.98 in 10.0 mi SW 8.1 mph - N/A   Overcast
4:53 AM 44.1 °F 40.8 °F 37.9 °F 79% 29.96 in 10.0 mi WSW 5.8 mph - N/A   Overcast
5:53 AM 44.1 °F 39.5 °F 39.0 °F 82% 29.95 in 10.0 mi West 8.1 mph - 0.00 in Rain Light Rain
6:34 AM 44.1 °F 37.4 °F 39.9 °F 85% 29.94 in 7.0 mi WNW 13.8 mph - 0.02 in Rain Light Rain
6:53 AM 43.0 °F 35.1 °F 41.0 °F 93% 29.96 in 7.0 mi NW 17.3 mph 23.0 mph 0.03 in Rain Light Rain
7:44 AM 42.1 °F 34.9 °F 39.0 °F 89% 29.95 in 7.0 mi NW 13.8 mph 24.2 mph 0.03 in Rain Light Rain
7:53 AM 42.1 °F 34.9 °F 37.9 °F 85% 29.97 in 8.0 mi NW 13.8 mph - 0.04 in Rain Light Rain
8:37 AM 39.9 °F 32.9 °F 37.0 °F 89% 29.97 in 9.0 mi NW 11.5 mph - 0.03 in Rain Light Rain
8:53 AM 39.9 °F 32.5 °F 36.0 °F 86% 29.98 in 9.0 mi NW 12.7 mph - 0.05 in Rain Light Rain
9:29 AM 39.9 °F 33.4 °F 37.0 °F 89% 29.96 in 10.0 mi NW 10.4 mph - 0.02 in Rain Light Rain
9:53 AM 39.9 °F 32.5 °F 37.0 °F 89% 29.98 in 10.0 mi NW 12.7 mph - 0.02 in Rain Light Rain
10:53 AM 39.9 °F 32.9 °F 36.0 °F 86% 29.97 in 10.0 mi WNW 11.5 mph - 0.00 in   Overcast
11:15 AM 39.9 °F 32.1 °F 36.0 °F 86% 29.95 in 10.0 mi WNW 13.8 mph - N/A   Overcast
11:35 AM 39.0 °F 29.6 °F 36.0 °F 89% 29.95 in 10.0 mi WNW 18.4 mph 23.0 mph 0.00 in Rain Light Rain
11:44 AM 37.9 °F 30.5 °F 35.1 °F 89% 29.95 in 8.0 mi WNW 11.5 mph 21.9 mph 0.00 in Rain Light Rain
11:53 AM 37.9 °F 30.5 °F 35.1 °F 89% 29.97 in 8.0 mi NW 11.5 mph - 0.01 in Rain Light Rain
12:04 PM 39.0 °F 32.3 °F 36.0 °F 89% 29.94 in 10.0 mi WNW 10.4 mph - 0.00 in   Overcast
12:38 PM 41.0 °F 34.3 °F 37.0 °F 86% 29.93 in 10.0 mi WNW 11.5 mph - 0.00 in   Overcast
12:53 PM 42.1 °F 36.6 °F 37.9 °F 85% 29.94 in 10.0 mi WNW 9.2 mph - 0.00 in   Overcast
1:36 PM 43.0 °F 36.4 °F 36.0 °F 76% 29.92 in 10.0 mi NNW 12.7 mph 19.6 mph N/A   Overcast
1:53 PM 44.1 °F 38.1 °F 36.0 °F 73% 29.94 in 10.0 mi North 11.5 mph - 0.00 in Rain Light Rain
2:36 PM 39.9 °F 29.5 °F 34.0 °F 79% 29.94 in 10.0 mi North 24.2 mph 32.2 mph 0.00 in   Overcast
2:48 PM 37.4 °F 26.9 °F 35.6 °F 93% 29.95 in 4.0 mi North 20.7 mph 27.6 mph 0.00 in Snow Light Snow
2:53 PM 37.9 °F 28.5 °F 35.1 °F 89% 29.97 in 7.0 mi North 17.3 mph 26.5 mph 0.01 in Snow Light Snow
3:06 PM 39.0 °F 29.3 °F 36.0 °F 89% 29.96 in 8.0 mi North 19.6 mph 27.6 mph 0.00 in Rain Light Rain
3:32 PM 39.0 °F 28.3 °F 34.0 °F 82% 29.97 in 10.0 mi North 24.2 mph 36.8 mph 0.00 in   Overcast
3:53 PM 37.9 °F 28.5 °F 34.0 °F 86% 30.01 in 6.0 mi North 17.3 mph 35.7 mph 0.00 in   Overcast
4:33 PM 37.0 °F 26.4 °F 34.0 °F 89% 30.02 in 5.0 mi North 20.7 mph 28.8 mph 0.00 in Snow Light Snow
4:53 PM 36.0 °F 25.6 °F 34.0 °F 93% 30.06 in 2.5 mi North 18.4 mph 26.5 mph 0.01 in Snow Light Snow
4:59 PM 35.1 °F 26.4 °F 33.1 °F 92% 30.04 in 1.5 mi North 12.7 mph - 0.01 in Snow Light Snow
5:08 PM 36.0 °F 26.3 °F 33.1 °F 89% 30.05 in 3.0 mi North 16.1 mph 27.6 mph 0.01 in Snow Light Snow
5:30 PM 36.0 °F 24.7 °F 33.1 °F 89% 30.06 in 8.0 mi North 21.9 mph 31.1 mph 0.02 in Snow Light Snow
5:53 PM 36.0 °F 25.0 °F 32.0 °F 86% 30.10 in 9.0 mi North 20.7 mph 29.9 mph 0.02 in   Overcast
6:53 PM 36.0 °F 24.4 °F 30.0 °F 79% 30.14 in 10.0 mi North 23.0 mph 32.2 mph N/A   Overcast
7:38 PM 35.1 °F 23.5 °F 28.9 °F 78% 30.14 in 10.0 mi North 21.9 mph 31.1 mph N/A   Overcast
7:53 PM 35.1 °F 24.1 °F 28.9 °F 78% 30.17 in 10.0 mi North 19.6 mph 28.8 mph N/A   Overcast
8:22 PM 35.1 °F 24.5 °F 28.9 °F 78% 30.16 in 10.0 mi North 18.4 mph 32.2 mph N/A   Overcast
8:53 PM 35.1 °F 23.8 °F 28.0 °F 76% 30.19 in 10.0 mi North 20.7 mph 31.1 mph N/A   Overcast
9:32 PM 34.0 °F 22.7 °F 26.1 °F 73% 30.18 in 10.0 mi North 19.6 mph 29.9 mph N/A   Overcast
9:53 PM 34.0 °F 22.4 °F 26.1 °F 73% 30.21 in 10.0 mi North 20.7 mph 31.1 mph N/A   Overcast
10:53 PM 34.0 °F 22.4 °F 24.1 °F 67% 30.24 in 10.0 mi North 20.7 mph 31.1 mph N/A   Overcast
11:53 PM 33.1 °F 21.9 °F 24.1 °F 70% 30.24 in 10.0 mi North 18.4 mph 25.3 mph N/A   Overcast